Location: Bush Observatory
(40.2653°N, 94.3194°W)
Time: 19:17:26
(UTC-06:00)

Vanguard 1 - Visible Passes

Search period start: 08 February 2016 00:00
Search period end: 18 February 2016 00:00
Orbit: 650 x 3834 km, 34.2° (Epoch: 08 February)

Date Brightness Start Highest point End Pass type
(mag) Time Alt. Az. Time Alt. Az. Time Alt. Az.
08 Feb 11.2 04:07:00 54° SSE 04:07:00 54° SSE 04:18:04 10° ESE visible
08 Feb 12.3 06:19:44 12° W 06:27:53 38° SSW 06:42:41 10° SE visible
09 Feb 13.1 02:14:16 11° E 02:14:16 11° E 02:14:39 10° E visible
09 Feb 11.1 04:26:59 51° SSW 04:27:09 51° S 04:39:22 10° ESE visible
09 Feb 12.4 06:40:34 10° W 06:49:09 31° SSW 07:02:56 10° SSE visible
10 Feb 12.8 02:34:15 16° ESE 02:34:15 16° ESE 02:36:02 10° ESE visible
10 Feb 11.2 04:47:00 42° SW 04:48:17 45° SSW 05:00:29 10° SE visible
11 Feb 12.6 02:54:17 20° ESE 02:54:17 20° ESE 02:57:23 10° ESE visible
11 Feb 11.5 05:07:01 33° SW 05:09:26 38° SSW 05:21:20 10° SE visible
12 Feb 12.3 03:14:20 25° SE 03:14:20 25° SE 03:18:38 10° ESE visible
12 Feb 11.8 05:27:04 24° SW 05:30:38 31° SSW 05:41:50 10° SE visible
13 Feb 12.0 03:34:24 28° SE 03:34:24 28° SE 03:39:46 10° ESE visible
13 Feb 12.1 05:47:08 16° WSW 05:51:51 24° SSW 06:01:51 10° SSE visible
14 Feb 11.9 03:54:30 29° SSE 03:54:30 29° SSE 04:00:42 10° SE visible
14 Feb 12.4 06:07:18 10° WSW 06:13:06 18° SSW 06:21:10 10° S visible
15 Feb 11.9 04:14:37 27° S 04:14:37 27° S 04:21:21 10° SE visible
15 Feb 12.7 06:30:31 10° SW 06:34:23 13° SSW 06:39:04 10° S visible
16 Feb 12.0 04:34:46 23° S 04:34:46 23° S 04:41:36 10° SSE visible
17 Feb 12.2 04:54:55 17° SSW 04:55:03 17° SSW 05:01:14 10° SSE visible
